Terminal Aerodrome Forecast
Issued by NWS Greer, SC

Home | Current Version | Previous Version | Text Only | Print | Product List | Glossary On
Versions: 1 2 3 4 5 6 7 8 9 10 11 12 13 14 15 16 17 18 19 20 21 22 23 24 25 26 27 28 29 30 31 32 33 34 35 36 37 38 39 40 41 42 43 44 45 46 47 48 49 50
542
FTUS42 KGSP 031136
TAFCLT
TAF
KCLT 031136Z 0312/0412 01006KT P6SM BKN250
     FM032300 06004KT P6SM BKN100 OVC250
     FM040400 08003KT P6SM OVC050 PROB30 0410/0412 4SM -RA OVC025=

USA.gov is the U.S. government's official web portal to all federal, state and local government web resources and services.